Location: York
(31.8935°S, 116.7682°E)
Time: 13:56:05
(UTC+08:00)

Vanguard 2 Rocket - All Passes

Search period start: 25 September 2022 00:00
Search period end: 05 October 2022 00:00
Orbit: 553 x 3323 km, 32.9° (Epoch: 24 September)

Date Brightness Start Highest point End Pass type
(mag) Time Alt. Az. Time Alt. Az. Time Alt. Az.
25 Sep - 09:54:02 10° NNE 09:58:20 14° NE 10:03:42 10° E daylight
25 Sep - 12:01:13 10° NW 12:10:48 54° NNE 12:27:05 10° ESE daylight
25 Sep - 14:13:46 10° WNW 14:27:03 89° NNE 14:47:23 10° E daylight
25 Sep - 16:28:48 10° W 16:46:09 90° S 17:06:39 10° ENE daylight
25 Sep - 18:45:36 10° WSW 19:05:10 65° NNW 19:22:47 10° NE visible
25 Sep - 21:05:48 10° W 21:21:24 30° NW 21:33:55 10° N visible
26 Sep - 11:02:22 10° NNW 11:10:18 38° NE 11:23:18 10° E daylight
26 Sep - 13:13:37 10° WNW 13:24:56 81° NNE 13:43:54 10° ESE daylight
26 Sep - 15:27:43 10° W 15:43:04 87° S 16:03:55 10° E daylight
26 Sep - 17:43:34 10° WSW 18:02:20 76° NNW 18:21:39 10° ENE daylight
26 Sep - 20:01:51 10° W 20:19:49 41° NW 20:34:56 10° NNE visible
26 Sep - 22:31:55 10° WNW 22:34:27 10° NW 22:36:53 10° NW visible
27 Sep - 10:04:21 10° N 10:10:22 23° NE 10:19:10 10° E daylight
27 Sep - 12:13:56 10° NW 12:23:29 68° NNE 12:40:19 10° ESE daylight
27 Sep - 14:27:03 10° W 14:40:19 87° S 15:00:40 10° E daylight
27 Sep - 16:42:03 10° W 16:59:19 84° NNW 17:19:45 10° ENE daylight
27 Sep - 18:58:56 10° WSW 19:17:41 53° NW 19:34:58 10° NE visible
27 Sep - 21:21:12 10° W 21:33:25 20° NW 21:43:56 10° N visible
28 Sep - 09:08:54 10° NE 09:10:49 11° NE 09:12:56 10° ENE daylight
28 Sep - 11:14:43 10° NW 11:22:43 52° NNE 11:36:46 10° ESE daylight
28 Sep - 13:26:48 10° WNW 13:38:05 89° NNE 13:57:07 10° E daylight
28 Sep - 15:41:01 10° W 15:56:20 90° N 16:17:09 10° ENE daylight
28 Sep - 17:56:49 10° WSW 18:15:07 64° NNW 18:34:11 10° NE visible
28 Sep - 20:16:03 10° W 20:31:58 30° NW 20:45:59 10° N visible
29 Sep - 10:16:03 10° NNW 10:22:34 34° NE 10:33:14 10° E daylight
29 Sep - 12:26:56 10° WNW 12:36:28 81° NNE 12:53:30 10° ESE daylight
29 Sep - 14:40:22 10° W 14:53:38 87° S 15:13:57 10° E daylight
29 Sep - 16:55:18 10° WSW 17:12:19 75° NNW 17:32:35 10° ENE daylight
29 Sep - 19:12:35 10° W 19:30:03 41° NW 19:46:36 10° NNE visible
29 Sep - 21:40:19 10° WNW 21:45:34 12° NW 21:50:32 10° NW visible
30 Sep - 09:18:17 10° N 09:22:56 19° NE 09:29:25 10° E daylight
30 Sep - 11:27:28 10° NW 11:35:28 67° NNE 11:50:01 10° ESE daylight
30 Sep - 13:40:05 10° W 13:51:22 86° S 14:10:23 10° E daylight
30 Sep - 15:54:17 10° WSW 16:09:30 83° NNW 16:30:13 10° ENE daylight
30 Sep - 18:10:12 10° WSW 18:27:44 52° NNW 18:46:14 10° NE visible
30 Sep - 20:31:26 10° W 20:44:08 21° NW 20:55:51 10° N visible
01 Oct - 10:28:25 10° NW 10:35:04 49° NNE 10:46:45 10° ESE daylight
01 Oct - 12:40:09 10° W 12:49:39 90° NNE 13:06:43 10° E daylight
01 Oct - 14:53:40 10° W 15:06:55 90° N 15:27:11 10° ENE daylight
01 Oct - 17:08:34 10° WSW 17:25:10 63° NNW 17:45:00 10° NE daylight
01 Oct - 19:26:50 10° W 19:42:22 30° NW 19:57:29 10° NNE visible
02 Oct - 09:29:54 10° NNW 09:35:14 30° NE 09:43:37 10° E daylight
02 Oct - 11:40:31 10° WNW 11:48:28 81° NNE 12:03:12 10° ESE daylight
02 Oct - 13:53:24 10° W 14:04:42 87° S 14:23:41 10° E daylight
02 Oct - 16:07:32 10° WSW 16:22:32 73° NNW 16:42:58 10° ENE daylight
02 Oct - 18:23:54 10° W 18:40:15 41° NW 18:57:44 10° NNE visible
02 Oct - 20:50:14 10° WNW 20:56:29 12° NW 21:02:32 10° NNW visible
03 Oct - 08:32:22 10° N 08:35:46 16° NE 08:40:08 10° E daylight
03 Oct - 10:41:12 10° NW 10:47:52 65° NNE 11:00:01 10° ESE daylight
03 Oct - 12:53:27 10° W 13:02:56 86° S 13:20:00 10° E daylight
03 Oct - 15:06:57 10° WSW 15:20:05 82° NNW 15:40:13 10° ENE daylight
03 Oct - 17:22:00 10° W 17:37:53 51° NNW 17:56:57 10° NE daylight
03 Oct - 19:42:17 10° W 19:54:44 21° NW 20:07:08 10° N visible
04 Oct - 09:42:15 10° NW 09:47:47 45° NNE 09:57:11 10° E daylight
04 Oct - 11:53:44 10° W 12:01:41 89° S 12:16:26 10° E daylight
04 Oct - 14:06:42 10° W 14:17:58 89° N 14:36:53 10° ENE daylight
04 Oct - 16:20:50 10° WSW 16:35:27 61° NNW 16:55:18 10° NE daylight
04 Oct - 18:38:13 10° W 18:52:45 30° NW 19:08:24 10° NNE visible
